FENGYUN 1C DEB, 29914

Orbit data source: Space-Track

FENGYUN 1C DEB, 29914 is space debris in SSO originally from a launch on Mon, 10 May 1999 UTC launched from the Taiyaun Space Center, China (TSC). Fengyun 1C debris stems from the Chinese weather satellite Fengyun-1C, which was intentionally destroyed by a Chinese anti-satellite missile in 2007. This event dramatically increased the amount of space debris, with thousands of trackable fragments posing hazards to satellites and human spaceflight. The Fengyun 1C debris cloud has become a focal point in discussions about space sustainability and the need for international regulations to prevent the creation of new debris.

Loading next visibility...
Identifier
29914, 1999-025HL
Orbit
SSO
Country
Flag of CNCN / PRC
Related business
Manufacturer
Unknown
Mission
Spacecraft
Bus & Motor
Unknown
Mass
Unknown
Launch date (UTC)
1999-05-10 (27 years ago)
Launch vehicle
Unknown
Launch site
Taiyaun Space Center, China (TSC)
Object type
Payload
Rocket body
Debris
Shape & HBR
Unknown shape, 0.1 m
Radar Cross Section
Medium (>0.1 m² and <1 m²)

Expand to show TLE details & history
Last TLE update: 17 hours ago

TLE from 17 hours ago
0 FENGYUN 1C DEB
1 29914U 99025HL  26175.83793840  .00000250  00000-0  18717-3 0  9997
2 29914  98.8213 203.7420 0034454 294.3250 247.4802 14.03211793995080
Epoch: 2026-06-24T20:06Z
TLE epoch observation values (Epoch: 2026-06-24T20:06:37.877Z)
Latitude
-1.54854°
Longitude
168.85565°
Altitude
895.453 km
Speed
7.399 km/s
True Right ascension
01h 34m 00s
True Declination
-1° 32' 22"
Sunlit
Object was in daylight at epoch
Visualization orbit readout
Latitude
Unknown
Longitude
Unknown
Altitude
Unknown
Speed
Unknown
Apparent Right ascension
Unknown
Apparent Declination
Unknown
Sunlit
N/A
Visualization observer readout
Local Sidereal Time
00:16:50
Azimuth
Unknown
Elevation
Unknown
Doppler factor
Unknown
Orbital elements
Apogee altitude
904.888 km
Perigee altitude
854.874 km
Semi-major axis
7,258.018 km
Eccentricity
0.00345
Inclination
98.8213°
RAAN
203.742°
Arg. of periapsis
294.325°
True anomaly
247.11609°
Mean anomaly
247.4802°
Eccentric anomaly
247.29809°
Mean motion
3.51007 °/min
Orbital period
102.56 mins
BSTAR
0.00018717
Loading maneuver chart data...
Computing Atmospheric mass density...
Loading historical data...
Loading historical data...
Loading historical data...
Loading historical data...
Loading historical data...
Loading historical data...
Loading historical data...

Documentation

Showing up to 5 results
|